Station OLCN6 - Olcott Harbor, NY Image indicating link to RSS feed of recent meteorological observations for station OLCN6


Conditions at OLCN6 as of
(3:00 pm EDT)
1900 GMT on 04/19/2024:
     

Click on the graph icon in the table below to see a time series plot of the last five days of that observation.

5-day plot - Wind Direction Wind Direction (WDIR): W ( 260 deg true )
5-day plot - Wind Speed Wind Speed (WSPD): 18.1 kts
5-day plot - Wind Gust Wind Gust (GST): 21.0 kts
5-day plot - Atmospheric Pressure Atmospheric Pressure (PRES):29.85 in
5-day plot - Pressure Tendency Pressure Tendency (PTDY):+0.05 in ( Rising )
5-day plot - Air Temperature Air Temperature (ATMP): 51.3 °F
5-day plot - Wind Chill Wind Chill (CHILL): 45.1 °F
5-day plot - Wind Speed at 10 Meters Wind Speed at 10 meters (WSPD10M): 17.5 kts
5-day plot - Wind Speed at 20 Meters Wind Speed at 20 meters (WSPD20M): 19.4 kts
5-day plot -  Wind Speed, Wind Gust and Atmospheric Pressure Combined plot of Wind Speed, Gust, and Air Pressure
Previous observations
TIME
(EDT)
5-day plot - Wind Direction
WDIR
 
5-day plot - Wind Speed
WSPD
kts
5-day plot - Wind Gust
GST
kts
5-day plot - Wave Height
WVHT
ft
5-day plot - Dominant Wave Period
DPD
sec
5-day plot - Average Wave Period
APD
sec
5-day plot - Mean Wave Direction
MWD
 
5-day plot - Atmospheric Pressure
PRES
in
5-day plot - Pressure Tendency
PTDY
in
5-day plot - Air Temperature
ATMP
°F
5-day plot - Water Temperature
WTMP
°F
5-day plot - Dew Point
DEWP
°F
5-day plot - Salinity
SAL
psu
5-day plot - Visibility
VIS
nmi
5-day plot - Tide (above MLLW)
TIDE
ft
2024-04-19 02:50 pm W 17.1 19.0----29.84- 50.7-----
2024-04-19 02:40 pm W 18.1 21.0----29.84- 52.0-----
2024-04-19 02:30 pm W 15.0 18.1----29.84- 49.6-----
2024-04-19 02:20 pm W 14.0 19.0----29.84- 48.7-----
2024-04-19 02:10 pm W 15.0 18.1----29.84-------
2024-04-19 02:00 pm W 14.0 17.1----29.83+0.01------
2024-04-19 01:50 pm W 15.0 18.1----29.82-------
2024-04-19 01:40 pm W 15.9 22.0----29.82-------
2024-04-19 01:30 pm W 19.0 25.1----29.81-------
2024-04-19 01:20 pmWNW 22.9 28.0----29.80- 58.1-----
2024-04-19 01:10 pmWSW 15.9 22.9----29.79- 61.5-----
2024-04-19 01:00 pmWSW 13.0 21.0----29.79-0.02 59.5-----
2024-04-19 12:50 pmWSW 13.0 21.0----29.80- 56.3-----
2024-04-19 12:40 pmWSW 13.0 18.1----29.79- 61.3-----
2024-04-19 12:30 pm SW 13.0 18.1----29.80- 60.8-----
2024-04-19 12:20 pm SW 9.9 15.9----29.80- 60.3-----
2024-04-19 12:10 pmSSW 8.0 14.0----29.80- 59.7-----
2024-04-19 12:00 pmSSW 6.0 11.1----29.80-0.07 58.6-----
2024-04-19 11:50 amSSW 5.1 7.0----29.81- 57.0-----
2024-04-19 11:40 amSSW 1.9 4.1----29.81- 53.6-----
2024-04-19 11:30 amSSW 2.9 5.1----29.82- 55.0-----
2024-04-19 11:20 amSSW 2.9 4.1----29.82- 54.3-----
2024-04-19 11:10 am S 1.9 4.1----29.82- 53.6-----
2024-04-19 11:00 am S 2.9 4.1----29.82-0.11 52.9-----
2024-04-19 10:50 am S 1.9 6.0----29.81- 52.3-----
2024-04-19 10:40 am SE 4.1 8.0----29.80- 51.8-----
2024-04-19 10:30 am S 7.0 9.9----29.83- 51.1-----
2024-04-19 10:20 amESE 8.0 9.9----29.80- 50.4-----
2024-04-19 10:10 am E 7.0 11.1----29.82- 47.8-----
2024-04-19 10:00 am E 9.9 11.1----29.81-0.07 47.1-----
2024-04-19 09:50 am E 8.0 11.1----29.82- 47.3-----
2024-04-19 09:40 amENE 9.9 11.1----29.83- 48.2-----
2024-04-19 09:30 amENE 8.0 8.0----29.84- 48.9-----
2024-04-19 09:20 am NE 1.9 2.9----29.88- 48.6-----
2024-04-19 09:10 am E 1.9 6.0----29.88- 48.0-----
2024-04-19 09:00 am E 5.1 8.0----29.87-0.05 46.6-----
2024-04-19 08:50 amENE 8.0 8.9----29.87- 46.4-----
2024-04-19 08:40 am E 7.0 7.0----29.88- 47.8-----
2024-04-19 08:30 am NE 4.1 5.1----29.90- 49.3-----
2024-04-19 08:20 am NE 1.9 2.9----29.90- 49.6-----
2024-04-19 08:10 am W 1.9 2.9----29.92- 49.8-----
2024-04-19 08:00 amSSW 1.9 2.9----29.93-0.03 50.0-----
2024-04-19 07:50 am S 1.9 5.1----29.92- 49.8-----
2024-04-19 07:40 amSSE 2.9 7.0----29.91- 49.5-----
2024-04-19 07:30 amESE 6.0 12.0----29.89- 49.3-----
2024-04-19 07:20 am E 8.9 13.0----29.88- 49.1-----
2024-04-19 07:10 am E 8.9 12.0----29.88- 49.1-----
2024-04-19 07:00 am E 8.9 12.0----29.88-0.11 48.9-----
2024-04-19 06:50 amESE 9.9 13.0----29.89- 49.1-----
2024-04-19 06:40 amESE 9.9 12.0----29.90- 49.1-----
2024-04-19 06:30 am E 8.0 11.1----29.90- 49.1-----
2024-04-19 06:20 am E 7.0 9.9----29.92- 49.3-----
2024-04-19 06:10 amESE 7.0 9.9----29.93- 49.5-----
2024-04-19 06:00 amESE 8.0 8.9----29.92-0.08 49.3-----
2024-04-19 05:50 am E 7.0 8.0----29.93- 48.9-----
2024-04-19 05:40 am E 4.1 8.0----29.94- 48.0-----
2024-04-19 05:30 am E 7.0 8.0----29.94- 48.4-----
2024-04-19 05:20 am E 6.0 7.0----29.96- 49.3-----
2024-04-19 05:10 amESE 6.0 8.0----29.96- 49.5-----
2024-04-19 05:00 amESE 6.0 8.0----29.96-0.07 50.0-----
2024-04-19 04:50 amESE 5.1 8.0----29.96- 49.8-----
2024-04-19 04:40 am SE 6.0 8.0----29.96- 50.0-----
2024-04-19 04:30 am SE 6.0 8.9----29.97- 50.0-----
2024-04-19 04:20 am SE 7.0 9.9----29.97- 50.4-----
2024-04-19 04:10 am SE 6.0 8.9----29.98- 50.2-----
2024-04-19 04:00 am SE 5.1 8.0----29.99-0.06 50.2-----
2024-04-19 03:50 am SE 5.1 7.0----29.99- 50.0-----
2024-04-19 03:40 am SE 6.0 8.9----29.99- 49.8-----
2024-04-19 03:30 am SE 5.1 7.0----29.99- 49.6-----
2024-04-19 03:20 am SE 5.1 7.0----29.99- 49.6-----
2024-04-19 03:10 amSSE 6.0 8.0----30.00- 49.5-----
2024-04-19 03:00 am SE 5.1 7.0----30.00-0.07 49.5-----
2024-04-19 02:50 am SE 6.0 7.0----30.00- 49.3-----
2024-04-19 02:40 am SE 4.1 6.0----30.01- 49.1-----
2024-04-19 02:30 amSSE 2.9 4.1----30.02- 49.1-----
2024-04-19 02:20 amSSE 4.1 6.0----30.02- 48.9-----
2024-04-19 02:10 amSSE 4.1 6.0----30.03- 48.9-----
2024-04-19 02:00 amSSE 5.1 5.1----30.03-0.05 49.1-----
2024-04-19 01:50 amSSE 4.1 5.1----30.04- 49.3-----
2024-04-19 01:40 am S 4.1 5.1----30.04- 49.3-----
2024-04-19 01:30 am S 2.9 4.1----30.05- 49.3-----
2024-04-19 01:20 am S 2.9 4.1----30.05- 49.3-----
2024-04-19 01:10 am S 2.9 4.1----30.05- 49.3-----
2024-04-19 01:00 am S 4.1 5.1----30.05-0.02 49.5-----
2024-04-19 12:50 amSSE 4.1 5.1----30.05- 49.6-----
2024-04-19 12:40 am S 2.9 5.1----30.05- 49.6-----
2024-04-19 12:30 am S 4.1 5.1----30.05- 49.8-----
2024-04-19 12:20 amSSE 2.9 4.1----30.05- 49.8-----
2024-04-19 12:10 am SE 2.9 2.9----30.06- 50.0-----
2024-04-19 12:00 am S 1.9 2.9----30.07-0.01 50.0-----
2024-04-18 11:50 pm SE 1.0 1.9----30.07- 50.0-----
2024-04-18 11:40 pmESE 1.0 1.9----30.07- 50.2-----
2024-04-18 11:30 pm SE 1.9 2.9----30.07- 50.4-----
2024-04-18 11:20 pmSSW 1.9 1.9----30.08- 50.2-----
2024-04-18 11:10 pm SE 1.0 1.9----30.07- 50.2-----
2024-04-18 11:00 pm SW 1.0 2.9----30.08+0.00 50.9-----
2024-04-18 10:50 pm- 0.0 1.9----30.08- 51.1-----
2024-04-18 10:40 pmENE 1.0 1.9----30.07- 51.1-----
2024-04-18 10:30 pm- 0.0 2.9----30.07- 51.4-----
2024-04-18 10:20 pmSSE 1.9 1.9----30.07- 51.4-----
2024-04-18 10:10 pmSSW 1.9 2.9----30.08- 51.6-----
2024-04-18 10:00 pm S 1.9 2.9----30.07-0.01 51.6-----
2024-04-18 09:50 pmESE 2.9 5.1----30.06- 51.6-----
2024-04-18 09:40 pm SE 4.1 5.1----30.07- 51.8-----
2024-04-18 09:30 pm SE 1.9 2.9----30.07- 51.8-----
2024-04-18 09:20 pm SE 1.9 4.1----30.07- 52.0-----
2024-04-18 09:10 pm SE 2.9 4.1----30.07- 52.0-----
2024-04-18 09:00 pm S 1.9 2.9----30.08+0.00 52.0-----
2024-04-18 08:50 pmSSW 1.9 2.9----30.08- 52.0-----
2024-04-18 08:40 pmWSW 1.9 1.9----30.08- 51.8-----
2024-04-18 08:30 pm SW 1.9 4.1----30.08- 51.8-----
2024-04-18 08:20 pmWSW 2.9 6.0----30.09- 51.8-----
2024-04-18 08:10 pm SW 4.1 6.0----30.08- 52.0-----
2024-04-18 08:00 pm SW 4.1 6.0----30.08+0.02 51.8-----
2024-04-18 07:50 pmWSW 2.9 6.0----30.08- 51.8-----
2024-04-18 07:40 pmWSW 5.1 7.0----30.08- 51.6-----
2024-04-18 07:30 pmWSW 6.0 8.0----30.08- 51.3-----
2024-04-18 07:20 pm W 6.0 9.9----30.08- 50.7-----
2024-04-18 07:10 pmWSW 8.0 11.1----30.08- 50.5-----
2024-04-18 07:00 pmWSW 7.0 8.9----30.08+0.03 50.2-----
2024-04-18 06:50 pmWSW 7.0 9.9----30.08- 49.5-----
2024-04-18 06:40 pm W 8.0 11.1----30.08- 48.9-----
2024-04-18 06:30 pm W 8.0 11.1----30.08- 48.2-----
2024-04-18 06:20 pm W 8.9 11.1----30.08- 48.4-----
2024-04-18 06:10 pm W 12.0 13.0----30.08- 48.2-----
2024-04-18 06:00 pm W 12.0 14.0----30.08+0.03 48.9-----
2024-04-18 05:50 pm W 12.0 13.0----30.07- 49.8-----
2024-04-18 05:40 pm W 11.1 13.0----30.07- 49.6-----
2024-04-18 05:30 pm W 11.1 13.0----30.07- 50.2-----
2024-04-18 05:20 pm W 11.1 13.0----30.07- 50.4-----
2024-04-18 05:10 pm W 12.0 14.0----30.07- 50.4-----
2024-04-18 05:00 pm W 13.0 14.0----30.06+0.02 50.5-----
2024-04-18 04:50 pm W 12.0 17.1----30.06- 51.4-----
2024-04-18 04:40 pm W 14.0 17.1----30.05- 52.7-----
2024-04-18 04:30 pm W 14.0 18.1----30.06- 52.5-----
2024-04-18 04:20 pm W 14.0 17.1----30.06- 52.2-----
2024-04-18 04:10 pm W 13.0 14.0----30.05- 52.3-----
2024-04-18 04:00 pm W 13.0 15.9----30.05+0.03 52.5-----
2024-04-18 03:50 pm W 14.0 15.9----30.05- 51.4-----
2024-04-18 03:40 pm W 11.1 15.9----30.05- 51.4-----
2024-04-18 03:30 pm W 12.0 14.0----30.05- 51.8-----
2024-04-18 03:20 pm W 9.9 12.0----30.05- 51.1-----
2024-04-18 03:10 pm W 9.9 13.0----30.05- 50.9-----
2024-04-18 03:00 pm W 11.1 15.0----30.05+0.02 52.3-----
2024-04-18 02:50 pm W 13.0 17.1----30.04- 52.5-----